Wind_Speed
8 7 5 4 5 6 7 8 9 12 13 15 17 16 14 14 15 16 16 17 17 16 14 14 17 17 18 18 19 20 22 25 30 34 28 28 26 26 22 20 12 7 16
6 5 4 1 2 4 9 11 12 13 13 15 17 16 14 14 15 16 17 18 19 19 18 16 17 18 18 19 21 23 23 23 24 29 30 29 27 22 16 16 9 2 12
6 5 3 4 5 8 12 12 13 14 13 15 18 18 15 14 15 15 16 17 19 21 21 19 21 22 21 21 20 22 23 24 26 24 29 29 32 29 20 18 11 8 2
8 8 8 9 10 11 12 12 13 15 15 16 18 18 15 15 15 15 16 17 19 21 22 22 22 24 23 22 21 22 24 25 25 27 31 33 35 34 30 28 20 13 8
10 10 9 10 11 10 10 11 12 13 14 13 16 18 17 17 18 17 17 17 18 19 21 22 22 23 22 21 22 22 22 24 25 28 30 34 38 40 40 34 28 17 12
10 10 9 10 10 8 8 9 8 11 13 14 14 17 16 17 16 16 16 17 17 18 19 21 21 20 24 23 21 20 19 19 23 25 25 30 34 35 32 32 28 29 30
11 11 10 10 9 7 6 6 7 9 10 11 13 13 14 15 15 15 14 14 15 17 18 20 21 22 22 23 20 20 19 18 17 19 21 24 28 32 30 29 26 15 18
13 13 12 11 10 9 7 6 5 5 6 8 10 11 12 13 14 14 15 14 15 17 18 19 20 21 22 22 22 21 21 21 21 19 18 19 19 23 24 26 26 18 8
15 15 14 12 11 10 9 6 4 2 4 6 7 8 10 12 14 14 14 15 15 16 17 18 19 20 22 21 21 22 22 21 21 20 19 19 18 21 23 23 30 32 26
18 17 15 13 12 11 9 6 4 1 3 5 5 7 10 12 14 15 15 15 16 17 18 18 19 21 21 22 22 24 24 25 23 21 21 22 23 23 24 25 25 28 29
16 16 14 13 12 10 8 5 2 1 2 4 5 8 10 12 14 16 17 18 19 19 20 20 20 20 21 22 22 23 24 22 22 24 25 25 25 26 26 26 22 22 25
15 14 14 12 11 10 7 5 4 3 3 4 6 8 9 10 12 14 15 16 17 17 18 18 18 19 20 21 21 21 21 22 24 26 27 28 30 30 28 26 23 19 18
18 17 16 13 11 8 7 6 6 5 4 5 6 7 9 10 11 12 14 14 14 14 15 16 16 16 16 17 18 18 20 22 25 27 30 30 29 27 26 26 24 22 20
20 20 17 15 12 10 10 9 8 7 7 8 9 9 9 10 10 11 14 15 16 15 16 17 15 14 15 16 16 18 20 22 23 24 25 26 26 27 28 28 29 28 27
22 21 19 17 14 12 11 11 10 10 9 10 9 9 9 10 11 14 15 14 15 15 15 15 15 15 16 17 19 20 21 22 22 24 24 25 26 26 28 29 30 30 31
24 23 20 18 15 14 13 12 11 11 11 12 10 10 10 10 11 14 17 16 15 15 17 17 18 19 18 19 19 19 20 22 22 24 25 26 28 29 28 27 28 30 31
25 23 21 20 18 16 14 12 11 11 12 11 10 8 9 10 12 16 18 15 15 15 17 20 19 19 20 20 19 20 20 21 19 20 23 25 26 27 28 28 28 29 29
23 21 21 19 17 15 14 14 14 14 13 11 10 10 9 10 13 14 17 16 14 15 18 20 19 18 18 18 18 19 20 20 19 20 22 24 25 27 28 27 28 29 29
24 21 20 18 17 17 18 18 16 15 13 12 11 12 12 13 13 15 17 17 15 16 17 20 18 18 17 17 16 16 18 20 18 19 22 24 25 26 27 28 27 27 28
22 22 22 22 22 22 20 17 16 14 14 13 13 13 15 15 16 16 19 16 14 16 17 19 19 16 15 15 14 15 17 19 17 19 23 25 26 27 29 30 28 28 28
23 23 23 24 24 21 18 18 16 16 14 15 15 16 17 16 16 17 19 15 15 16 18 17 16 12 13 13 13 15 18 19 19 20 23 26 27 28 30 32 30 28 27
26 26 25 25 22 19 17 16 16 16 15 16 17 19 17 17 17 18 16 16 15 16 17 15 14 13 14 14 15 17 21 22 21 22 24 26 27 29 31 34 34 32 28
25 25 26 24 22 19 18 17 16 15 16 18 17 16 16 17 16 16 16 14 15 16 15 14 14 14 15 17 19 21 23 24 24 25 26 27 28 28 31 34 36 37 30
22 23 24 24 23 22 20 19 18 17 20 18 16 17 16 16 16 15 14 14 16 15 15 16 16 18 20 22 23 24 26 27 27 26 26 29 30 28 31 33 35 37 31
22 22 23 24 24 25 24 23 21 20 19 18 18 16 16 16 16 15 15 14 14 14 15 18 21 24 25 26 27 27 27 26 30 28 26 30 29 31 31 33 35 36 29
20 21 22 22 23 23 22 21 21 20 19 18 18 17 15 15 14 13 10 11 13 17 20 23 26 29 31 32 31 30 30 33 31 28 27 29 30 30 31 33 34 30 25
Wind_Direction
229 245 264 294 327 350 13 33 41 37 37 31 26 25 28 29 32 32 34 27 21 18 9 9 8 9 10 5 4 2 359 351 339 338 345 332 328 321 302 302 253 243 251
228 230 254 299 354 50 53 58 51 42 37 33 29 32 35 34 36 35 35 28 24 23 20 17 11 12 11 9 7 8 7 6 352 343 356 0 1 354 340 330 307 287 233
189 176 113 102 97 90 69 61 55 45 45 40 37 40 42 41 37 34 32 29 28 27 26 21 18 14 12 8 9 9 9 12 10 2 360 9 13 13 6 6 352 352 131
152 137 103 101 104 95 78 66 61 53 53 48 45 46 45 49 43 38 34 32 31 29 29 29 29 23 12 6 5 3 4 7 8 10 7 10 11 18 21 13 1 10 10
137 131 122 113 104 95 83 72 61 59 59 56 49 46 43 45 41 38 34 32 32 31 30 30 35 36 25 14 6 5 -0 5 10 11 9 10 7 15 22 20 15 11 1
146 141 136 126 117 112 97 76 67 63 55 52 50 46 39 39 37 31 28 24 25 25 26 27 28 30 34 24 18 15 6 9 16 14 12 9 11 9 19 26 28 19 14
158 158 151 146 138 134 112 98 79 62 50 43 40 37 35 38 33 27 22 18 16 19 20 20 25 21 26 29 26 27 24 24 26 21 18 14 12 10 13 23 28 40 24
176 168 163 159 149 143 133 116 92 68 48 38 31 26 25 32 31 26 21 17 15 15 13 14 17 17 19 18 20 29 31 30 36 35 33 26 23 16 18 25 25 32 31
179 173 169 167 159 149 149 139 112 66 16 12 16 15 17 22 23 22 17 16 15 16 13 12 12 13 13 15 15 21 25 30 37 40 41 42 41 41 26 20 23 23 24
181 182 177 174 172 169 165 154 146 153 335 345 350 5 12 11 14 12 11 12 13 14 14 14 14 11 11 10 13 15 19 19 18 23 29 33 34 38 39 34 30 30 24
186 185 181 179 178 185 190 192 200 271 290 313 344 0 360 2 3 4 3 3 7 7 6 9 10 8 8 5 9 15 18 13 19 20 21 25 27 29 33 37 38 32 23
194 185 187 187 187 191 196 212 233 249 269 307 337 349 345 349 355 358 356 355 356 357 359 3 3 0 359 360 5 7 5 9 16 20 22 22 20 19 23 28 32 36 35
192 189 186 183 188 194 200 215 229 239 264 302 315 321 324 336 344 349 349 351 353 357 0 3 358 355 357 358 360 358 359 7 11 15 18 19 20 19 13 15 18 20 26
191 190 189 191 196 202 212 224 239 254 272 291 302 310 317 328 336 346 356 354 351 354 358 358 355 358 359 1 2 5 9 13 15 15 13 11 9 10 11 12 11 8 7
192 195 197 202 205 210 218 233 249 265 278 290 297 309 326 339 352 4 5 1 348 354 352 347 350 355 357 0 5 6 8 11 11 11 9 9 8 8 8 6 7 7 10
199 203 205 211 215 221 229 239 253 268 282 294 306 316 329 349 359 357 360 355 342 355 349 350 353 356 360 4 4 5 4 6 6 4 6 5 5 5 4 5 4 5 6
208 211 215 220 225 228 238 248 264 277 287 292 299 308 324 337 342 347 348 338 334 342 348 352 350 349 355 359 1 3 3 4 3 1 3 3 1 1 1 1 0 0 0
214 220 227 232 237 249 259 268 276 277 278 281 291 300 315 323 325 330 333 328 321 335 342 346 345 342 345 352 354 357 360 358 360 2 4 4 3 360 358 358 357 356 356
223 228 237 242 248 255 260 267 269 273 279 283 287 298 310 309 313 320 325 323 322 337 334 340 342 340 340 345 347 353 357 356 353 355 359 360 360 358 356 354 351 350 350
234 240 245 248 253 259 262 262 267 271 273 280 285 291 298 301 309 313 317 318 323 332 331 333 336 337 339 344 345 349 354 354 349 349 352 354 355 356 354 352 348 345 344
238 243 247 250 252 255 260 266 267 268 273 287 283 289 297 301 306 308 311 312 319 324 325 328 334 339 342 346 347 346 346 350 348 341 343 347 350 350 349 349 346 341 338
242 246 250 251 252 254 261 271 267 265 274 283 282 287 290 297 298 303 303 307 311 316 319 324 333 337 337 340 342 340 337 337 338 336 337 337 337 338 338 341 343 340 334
246 247 248 250 252 255 257 263 267 271 277 281 286 285 287 291 295 299 301 306 309 311 316 318 323 327 328 328 329 330 329 328 329 326 324 325 326 325 327 330 335 338 332
249 249 251 254 255 258 259 261 267 265 273 276 278 279 289 292 294 298 301 305 306 310 312 314 315 316 316 315 314 312 315 319 319 317 315 315 312 307 313 318 326 330 325
254 253 252 253 253 255 259 262 264 267 273 275 280 276 286 287 293 296 300 304 310 312 312 310 309 309 309 308 299 294 293 295 304 300 299 296 296 298 304 310 318 322 318
256 256 257 256 256 255 255 258 263 267 269 274 270 277 281 287 285 296 298 298 297 298 298 299 298 295 290 287 288 289 293 300 302 300 297 294 289 292 299 306 313 316 312
Height
1508 1509 1511 1509 1508 1508 1507 1505 1503 1502 1500 1498 1496 1493 1490 1487 1485 1482 1479 1476 1473 1470 1467 1464 1461 1457 1453 1450 1446 1440 1435 1430 1421 1410 1406 1399 1391 1385 1383 1379 1376 1372 1372
1508 1509 1510 1508 1508 1508 1507 1505 1503 1502 1501 1499 1496 1493 1491 1489 1486 1484 1481 1478 1474 1471 1468 1465 1461 1456 1453 1449 1444 1439 1434 1429 1423 1414 1406 1397 1391 1384 1379 1374 1369 1366 1365
1506 1508 1508 1508 1508 1508 1507 1506 1504 1503 1502 1500 1497 1494 1492 1490 1488 1486 1483 1480 1477 1473 1470 1466 1461 1456 1452 1449 1445 1440 1435 1429 1425 1418 1408 1400 1392 1383 1377 1372 1368 1363 1361
1505 1507 1507 1508 1508 1508 1507 1506 1505 1504 1502 1501 1499 1497 1495 1492 1490 1487 1485 1482 1479 1476 1472 1467 1463 1458 1454 1449 1445 1440 1435 1429 1424 1416 1408 1402 1395 1387 1379 1370 1365 1363 1357
1505 1506 1507 1508 1508 1508 1508 1507 1506 1505 1504 1503 1501 1499 1497 1495 1492 1489 1486 1484 1481 1478 1474 1470 1465 1462 1457 1451 1445 1440 1435 1430 1424 1417 1411 1404 1396 1386 1378 1375 1369 1363 1361
1504 1506 1507 1507 1508 1508 1508 1507 1507 1506 1504 1504 1503 1501 1499 1496 1494 1491 1489 1486 1483 1479 1476 1472 1467 1463 1458 1453 1448 1443 1438 1433 1427 1421 1416 1410 1402 1396 1389 1383 1377 1370 1364
1503 1505 1506 1507 1507 1508 1507 1507 1507 1506 1505 1505 1504 1502 1500 1498 1495 1493 1490 1487 1484 1480 1476 1472 1468 1463 1458 1455 1451 1446 1441 1436 1430 1425 1419 1413 1406 1399 1394 1388 1384 1381 1379
1503 1504 1505 1506 1506 1507 1507 1507 1507 1506 1506 1506 1505 1503 1502 1499 1496 1494 1490 1487 1484 1480 1476 1472 1468 1464 1460 1455 1452 1447 1442 1437 1431 1427 1422 1416 1410 1403 1398 1392 1386 1382 1380
1501 1502 1504 1505 1505 1506 1507 1507 1507 1507 1506 1506 1505 1503 1501 1499 1496 1494 1491 1488 1484 1480 1476 1472 1468 1464 1460 1457 1453 1448 1444 1439 1435 1430 1425 1420 1414 1407 1401 1395 1385 1380 1376
1499 1500 1502 1503 1504 1505 1506 1506 1506 1506 1506 1505 1504 1502 1500 1498 1496 1493 1490 1487 1483 1479 1475 1471 1467 1463 1460 1456 1451 1447 1442 1437 1433 1429 1425 1420 1415 1408 1402 1396 1392 1387 1383
1497 1498 1500 1502 1504 1505 1505 1506 1506 1506 1505 1504 1502 1501 1499 1497 1494 1491 1488 1485 1481 1477 1474 1470 1466 1463 1459 1455 1451 1446 1442 1439 1434 1428 1423 1418 1413 1409 1404 1400 1395 1390 1386
1495 1497 1499 1501 1502 1504 1504 1505 1505 1505 1504 1503 1501 1500 1498 1496 1493 1490 1487 1484 1481 1478 1474 1470 1466 1463 1459 1455 1451 1447 1443 1438 1433 1428 1423 1418 1412 1408 1405 1402 1399 1395 1392
1492 1495 1497 1499 1501 1502 1503 1503 1503 1503 1502 1501 1500 1499 1496 1494 1491 1489 1486 1482 1479 1476 1473 1470 1466 1463 1459 1456 1451 1447 1442 1437 1432 1427 1423 1419 1416 1413 1409 1404 1401 1397 1393
1489 1492 1494 1496 1498 1499 1500 1500 1500 1500 1499 1498 1497 1496 1494 1491 1489 1486 1483 1479 1476 1474 1471 1469 1466 1462 1459 1455 1451 1446 1441 1437 1433 1429 1425 1421 1418 1413 1408 1404 1399 1394 1390
1487 1490 1492 1493 1495 1496 1497 1498 1497 1497 1497 1496 1494 1493 1491 1489 1486 1483 1480 1478 1474 1472 1470 1467 1464 1460 1456 1453 1449 1445 1442 1438 1433 1429 1425 1421 1417 1412 1407 1402 1397 1393 1388
1484 1487 1489 1491 1492 1492 1493 1494 1494 1494 1493 1492 1490 1489 1487 1485 1483 1482 1479 1477 1473 1471 1468 1465 1461 1458 1455 1451 1448 1445 1441 1438 1433 1429 1425 1420 1415 1411 1407 1404 1399 1394 1389
1481 1483 1485 1486 1488 1489 1490 1491 1491 1491 1490 1488 1487 1485 1484 1483 1481 1478 1477 1475 1472 1469 1466 1463 1460 1457 1454 1451 1447 1444 1441 1438 1435 1431 1426 1421 1417 1413 1408 1403 1399 1395 1391
1480 1481 1482 1484 1485 1486 1487 1487 1487 1487 1486 1485 1483 1482 1481 1480 1478 1477 1475 1472 1470 1467 1464 1461 1459 1456 1453 1450 1447 1443 1440 1437 1434 1430 1427 1422 1418 1413 1409 1405 1401 1396 1392
1476 1478 1480 1481 1482 1483 1484 1484 1483 1482 1481 1480 1479 1478 1477 1476 1475 1473 1471 1470 1467 1465 1462 1459 1456 1454 1451 1448 1446 1443 1440 1437 1433 1430 1426 1422 1418 1414 1410 1405 1401 1397 1392
1472 1474 1476 1477 1478 1479 1479 1479 1478 1477 1477 1476 1475 1474 1474 1473 1471 1470 1468 1466 1464 1462 1460 1457 1454 1451 1449 1446 1444 1442 1439 1436 1432 1429 1425 1421 1417 1413 1409 1405 1400 1395 1391
1468 1469 1471 1472 1472 1473 1473 1473 1473 1473 1472 1472 1471 1470 1470 1468 1467 1465 1464 1462 1461 1459 1457 1455 1452 1449 1447 1444 1442 1440 1437 1434 1431 1427 1424 1420 1415 1411 1408 1403 1399 1394 1390
1462 1464 1465 1466 1467 1467 1467 1467 1467 1467 1467 1467 1466 1465 1464 1463 1462 1461 1459 1457 1456 1454 1453 1451 1449 1447 1444 1442 1439 1437 1434 1431 1428 1424 1421 1417 1413 1409 1405 1400 1396 1391 1387
1456 1458 1459 1460 1461 1462 1462 1462 1462 1463 1463 1462 1461 1461 1460 1459 1457 1456 1455 1453 1452 1450 1449 1447 1445 1443 1441 1438 1436 1433 1429 1426 1423 1420 1416 1413 1409 1405 1401 1396 1392 1387 1383
1451 1452 1453 1454 1455 1455 1456 1457 1457 1457 1457 1457 1456 1456 1455 1454 1453 1451 1450 1449 1447 1446 1445 1443 1441 1438 1436 1434 1431 1427 1424 1420 1417 1414 1410 1406 1402 1399 1395 1391 1387 1383 1378
1444 1445 1446 1448 1449 1449 1450 1451 1451 1451 1451 1451 1450 1450 1449 1449 1448 1447 1446 1444 1443 1441 1440 1438 1436 1433 1430 1427 1423 1419 1416 1413 1410 1407 1404 1400 1396 1393 1389 1385 1382 1377 1373
1439 1440 1441 1442 1442 1443 1444 1445 1446 1446 1446 1446 1445 1445 1444 1443 1443 1442 1441 1440 1438 1437 1434 1432 1428 1425 1422 1418 1415 1411 1408 1405 1401 1398 1395 1392 1388 1385 1381 1378 1375 1371 1367